[[{"header":{"parameterUnit":"m.s-1","parameterCategory":1,"la1":30.2991,"la2":30.254,"lo1":-89.0895,"lo2":-89.0444,"dy":0.0017,"dx":0.0017,"nx":28,"ny":28,"refTime":"2024-11-23T09:00:00:Z","depth":0,"parameterNumber":2,"parameterNumberName":"U-component_of_WINDS"},"data":[0,0,0,0,0,0,0,0,0,0,0,0,0,0,0,0,0,0,0,0,0,0,0,0,0,0,0,0,0,0,0,0,0,0,0,0,0,0,0,0,0,0,0,0,0,0,0,0,0,0,0,0,0,0,0,0,0,0,0.084,0.0841,0,0.0898,0.0899,0.09,0.0968,0.0969,0.0971,0.0972,0.103,0.1031,0.1031,0,0,0,0,0,0,0,0,0,0,0,0,0,0.0787,0.0788,0.084,0.0841,0.0841,0.0898,0.0899,0.09,0.0968,0.097,0.0971,0.0972,0.103,0.1031,0.1032,0,0,0,0,0,0,0,0,0,0,0,0,0,0.0824,0.0788,0.084,0.0883,0.0887,0.0898,0.0899,0.09,0.0968,0.097,0.0971,0.0973,0.103,0.1031,0.1032,0.1005,0,0,0.1034,0.1035,0,0,0,0,0,0,0,0,0.0822,0.0826,0.0876,0.088,0.0885,0.0928,0.0902,0.0935,0.0968,0.0937,0.0972,0.0973,0.0995,0.0999,0.1006,0.1008,0.1011,0.1034,0.1035,0.1035,0.1036,0,0,0,0,0,0,0,0.0819,0.0824,0.0863,0.0876,0.0882,0.0898,0.0905,0.0909,0.0956,0.094,0.0945,0.0951,0.0998,0.1005,0.1008,0.1011,0.1034,0.1035,0.1036,0.1036,0.0993,0.0992,0,0,0,0,0,0,0.081,0.0821,0.0861,0.0865,0.0857,0.0898,0.0906,0.0912,0.0957,0.0965,0.095,0.0954,0.1003,0.1007,0.101,0.0982,0.1035,0.1036,0.1037,0.0995,0.0993,0.0991,0,0,0,0,0,0,0.0809,0.0813,0.0859,0.0844,0.0852,0.0897,0.0904,0.0913,0.092,0.0964,0.0973,0.0949,0.1004,0.1009,0.1006,0.0985,0.1036,0.1037,0.0997,0.0994,0.0992,0.0924,0,0,0,0,0,0,0.0807,0.0812,0.0803,0.0844,0.0852,0.0853,0.0903,0.0913,0.0922,0.0928,0.0965,0.0973,0.1006,0.1004,0.1007,0.0987,0.1038,0.0999,0.0996,0.0993,0.0928,0.0919,0.0912,0,0,0,0,0,0.0805,0.0782,0.0802,0.0807,0.0841,0.0852,0.0857,0.0895,0.092,0.091,0.0938,0.0972,0.0987,0.1003,0.1007,0.0987,0.1001,0.0997,0.0993,0.0932,0.0921,0.0912,0,0,0,0,0,0,0.0737,0.0788,0.0811,0.08,0.0821,0.0864,0.0853,0.0883,0.0897,0.0903,0.095,0.0958,0.0948,0.0968,0.0985,0.0963,0.0998,0.0995,0.0951,0.0941,0.0933,0.0928,0.1039,0,0,0,0,0,0.0721,0.0726,0.077,0.0756,0.0765,0.0807,0.0813,0.0841,0.0865,0.0874,0.0902,0.0923,0.0933,0.0938,0.0949,0.0932,0.094,0.0919,0.0911,0.0904,0.09,0.0891,0.0882,0.0979,0.0979,0.0979,0,0,0.0688,0.0716,0.0716,0.0743,0.0763,0.0766,0.0814,0.0816,0.0819,0.0874,0.0873,0.0894,0.0921,0.0909,0.0906,0.0925,0.0876,0.0899,0.0893,0.0894,0.0887,0.0877,0.0869,0.0976,0.0977,0.0977,0,0,0.0628,0.065,0.0641,0.0659,0.0688,0.0716,0.0714,0.0752,0.0768,0.0767,0.0808,0.0812,0.0828,0.0845,0.0856,0.0802,0.0832,0.0804,0.0761,0.0751,0.0744,0.0737,0.0717,0.0709,0.0801,0.08,0.08,0,0.0583,0.059,0.0632,0.0631,0.0641,0.0692,0.0682,0.0698,0.0729,0.0734,0.0755,0.0775,0.0797,0.079,0.0777,0.0784,0.0782,0.08,0.0742,0.0735,0.073,0.0711,0.0703,0.0797,0.0797,0.0797,0.0798,0,0.0532,0.0536,0.0525,0.0553,0.0563,0.0557,0.0598,0.0602,0.0629,0.0654,0.0652,0.068,0.0697,0.0698,0.0724,0.0694,0.0705,0.0733,0.0769,0.0716,0.0699,0.0692,0.0791,0.0793,0.0794,0.0795,0,0,0.0432,0.0483,0.0478,0.0491,0.0527,0.053,0.0527,0.0544,0.0546,0.0565,0.0563,0.0574,0.06,0.0612,0.0641,0.0633,0.0587,0.0662,0.0664,0.0646,0.0554,0.0532,0.0523,0.0608,0.0607,0.0606,0.0552,0,0.0378,0.0375,0.0412,0.0399,0.0402,0.045,0.0447,0.0468,0.0491,0.0498,0.0524,0.0531,0.0565,0.0573,0.0567,0.0594,0.0569,0.0598,0.0605,0.0605,0.0596,0.0515,0.0492,0.0439,0.0545,0.0544,0.0544,0,0.0315,0.033,0.0317,0.0352,0.0355,0.0352,0.037,0.0375,0.04,0.0417,0.043,0.0463,0.0461,0.0497,0.0494,0.0513,0.0518,0.0532,0.0531,0.0532,0.057,0.0513,0.0423,0.0415,0.0534,0.0535,0.0535,0,0.0241,0.0259,0.0253,0.0263,0.0304,0.03,0.0317,0.0344,0.0351,0.0367,0.0372,0.0387,0.0395,0.0405,0.0441,0.0464,0.0434,0.0473,0.0448,0.0447,0.0439,0.0439,0.0348,0.0444,0.0444,0.0444,0.0444,0,0.0177,0.0166,0.0221,0.0217,0.0206,0.0249,0.0238,0.0259,0.0282,0.0283,0.0325,0.0325,0.0373,0.0377,0.0406,0.0398,0.0402,0.0416,0.0423,0.0411,0.0409,0.0415,0.0419,0.0442,0.0442,0.0443,0.0443,0,0.0093,0.0129,0.0125,0.0164,0.0174,0.0164,0.0198,0.0195,0.0222,0.0222,0.0224,0.0265,0.0273,0.031,0.0327,0.0345,0.0328,0.0344,0.032,0.0324,0.0297,0.0299,0.0206,0.0195,0.0298,0.0297,0.0296,0,0.0049,0.0042,0.008,0.0084,0.0098,0.0104,0.0112,0.0154,0.016,0.0186,0.0181,0.0192,0.0203,0.0213,0.0244,0.0256,0.0272,0.0238,0.0274,0.0262,0.027,0.0269,0.0268,0.023,0.0229,0.0228,0.0227,0,-0.0034,-0.0016,-0.0006,0.0009,0.0017,0.0031,0.0048,0.0048,0.0095,0.0099,0.0108,0.0116,0.0133,0.0143,0.0161,0.0178,0.0209,0.0216,0.021,0.0198,0.0184,0.019,0.0298,0.0217,0.0218,0.0219,0.0219,0.022,-0.01,-0.0104,-0.0078,-0.0069,-0.0052,-0.0038,-0.0038,-0.0013,-0.0005,0.0012,0.0037,0.0041,0.0065,0.0092,0.0106,0.011,0.0129,0.0121,0.0119,0.0116,0.011,0.0184,0.0114,0.0114,0.0115,0.0115,0.0115,0,-0.0181,-0.0162,-0.0154,-0.0132,-0.0126,-0.0096,-0.0076,-0.0073,-0.0069,-0.0049,-0.0039,-0.003,-0.002,0.0011,0.0024,0.0021,0.0035,0.0023,0.0023,0.0026,0.0094,0.0096,0.001,0.001,0.001,0.001,0.001,0.001,-0.0222,-0.0228,-0.0208,-0.0205,-0.0186,-0.0181,-0.0172,-0.0159,-0.0143,-0.0135,-0.0127,-0.0106,-0.0082,-0.0068,-0.0058,-0.0049,-0.0046,-0.0064,-0.0051,0.0011,0.0021,0.0031,0.0034,-0.0064,-0.0064,-0.0119,-0.012,-0.012]},{"header":{"parameterUnit":"m.s-1","parameterCategory":1,"la1":30.2991,"la2":30.254,"lo1":-89.0895,"lo2":-89.0444,"dy":0.0017,"dx":0.0017,"nx":28,"ny":28,"refTime":"2024-11-23T09:00:00:Z","depth":0,"parameterNumber":3,"parameterNumberName":"V-component_of_WINDS"},"data":[0,0,0,0,0,0,0,0,0,0,0,0,0,0,0,0,0,0,0,0,0,0,0,0,0,0,0,0,0,0,0,0,0,0,0,0,0,0,0,0,0,0,0,0,0,0,0,0,0,0,0,0,0,0,0,0,0,0,0.2846,0.2846,0,0.2809,0.2809,0.2809,0.2806,0.2806,0.2807,0.2807,0.2767,0.2766,0.2765,0,0,0,0,0,0,0,0,0,0,0,0,0,0.2913,0.2912,0.2846,0.2846,0.2845,0.281,0.2809,0.2809,0.2806,0.2806,0.2807,0.2807,0.2768,0.2766,0.2764,0,0,0,0,0,0,0,0,0,0,0,0,0,0.2881,0.2911,0.2846,0.284,0.2839,0.281,0.2809,0.2808,0.2806,0.2806,0.2807,0.2807,0.2768,0.2766,0.2764,0.2739,0,0,0.2758,0.2757,0,0,0,0,0,0,0,0,0.2882,0.2878,0.2841,0.284,0.2839,0.2813,0.2818,0.2785,0.2805,0.2818,0.2807,0.2808,0.2782,0.2779,0.277,0.2737,0.2735,0.2757,0.2756,0.2755,0.2755,0,0,0,0,0,0,0,0.2885,0.288,0.2832,0.2841,0.2839,0.2838,0.2834,0.2812,0.2797,0.2817,0.2817,0.2813,0.2781,0.2772,0.2769,0.2735,0.2758,0.2756,0.2754,0.2753,0.2677,0.2677,0,0,0,0,0,0,0.2888,0.2882,0.2833,0.2831,0.2863,0.2836,0.2832,0.2821,0.2797,0.2794,0.2812,0.2813,0.2776,0.2772,0.2768,0.2736,0.2755,0.2753,0.2752,0.2678,0.2677,0.2676,0,0,0,0,0,0,0.289,0.2884,0.2834,0.2856,0.285,0.2835,0.2822,0.282,0.2811,0.2793,0.2791,0.2806,0.2776,0.2771,0.2746,0.2734,0.2752,0.275,0.2679,0.2678,0.2677,0.2672,0,0,0,0,0,0,0.2892,0.2885,0.2875,0.2856,0.2849,0.2813,0.2821,0.2818,0.2807,0.2807,0.2787,0.2784,0.2776,0.2749,0.2744,0.2732,0.2749,0.268,0.2679,0.2677,0.2673,0.2671,0.2669,0,0,0,0,0,0.2894,0.2875,0.2875,0.2869,0.2836,0.2813,0.2808,0.2801,0.2806,0.2796,0.2785,0.2785,0.2737,0.2747,0.2741,0.2728,0.2681,0.2679,0.2677,0.2674,0.2671,0.2669,0,0,0,0,0,0,0.2893,0.2872,0.2872,0.2846,0.2831,0.2812,0.2799,0.2798,0.2781,0.2782,0.2772,0.2768,0.2743,0.2733,0.2744,0.2701,0.2709,0.2706,0.2709,0.2706,0.2704,0.2706,0.2747,0,0,0,0,0,0.289,0.2873,0.2855,0.2834,0.2827,0.2815,0.2804,0.2799,0.2783,0.2777,0.2764,0.2748,0.2729,0.2717,0.2699,0.2672,0.2667,0.266,0.2658,0.2656,0.2653,0.2637,0.2634,0.2671,0.2671,0.2671,0,0,0.2882,0.2869,0.2859,0.2834,0.2822,0.2803,0.2809,0.279,0.2776,0.2774,0.2749,0.2739,0.2721,0.2694,0.2682,0.2685,0.2642,0.2654,0.2653,0.2651,0.2635,0.2632,0.2629,0.267,0.267,0.267,0,0,0.286,0.2849,0.2829,0.2817,0.2799,0.2791,0.2787,0.2768,0.2762,0.2737,0.2735,0.2718,0.2686,0.2673,0.2662,0.2635,0.2633,0.263,0.2618,0.2603,0.26,0.2597,0.2586,0.2583,0.2627,0.2627,0.2627,0,0.2853,0.2826,0.2819,0.28,0.2789,0.2786,0.2766,0.2755,0.2732,0.2724,0.2728,0.2688,0.2676,0.2645,0.2639,0.2631,0.2624,0.2631,0.2601,0.2598,0.2595,0.2585,0.2581,0.2627,0.2627,0.2627,0.2627,0,0.2818,0.28,0.2786,0.2764,0.2752,0.2732,0.2722,0.2709,0.2706,0.2697,0.2672,0.2657,0.2636,0.2629,0.2625,0.2598,0.26,0.2603,0.261,0.2592,0.2582,0.2578,0.2626,0.2626,0.2626,0.2626,0,0,0.2793,0.2768,0.2763,0.2753,0.2733,0.2718,0.2698,0.2678,0.2667,0.2652,0.2634,0.2607,0.261,0.2597,0.2592,0.2579,0.2557,0.2583,0.2582,0.2578,0.2525,0.2523,0.2518,0.2557,0.2556,0.2555,0.2527,0,0.2767,0.2732,0.2726,0.2695,0.2677,0.2675,0.2658,0.2643,0.2635,0.2618,0.2609,0.259,0.2595,0.2587,0.2574,0.2563,0.2546,0.2565,0.2539,0.2538,0.2543,0.2513,0.251,0.2484,0.2523,0.2522,0.2522,0,0.2733,0.2716,0.2684,0.2666,0.2659,0.2643,0.2624,0.2608,0.2592,0.2586,0.2573,0.2569,0.2548,0.2557,0.2527,0.254,0.2529,0.2522,0.2521,0.2517,0.2528,0.2507,0.2475,0.2471,0.2516,0.2516,0.2517,0,0.2716,0.2686,0.2663,0.2654,0.2633,0.2622,0.2613,0.2597,0.2585,0.2568,0.256,0.2541,0.253,0.2515,0.2506,0.2514,0.2476,0.2485,0.247,0.247,0.2461,0.2462,0.2426,0.2457,0.2457,0.2457,0.2457,0,0.2688,0.2668,0.2655,0.264,0.2618,0.261,0.2588,0.2579,0.2565,0.2548,0.2545,0.2529,0.2519,0.2501,0.2494,0.247,0.2465,0.246,0.2458,0.2459,0.246,0.2451,0.2452,0.2456,0.2456,0.2456,0.2456,0,0.2665,0.2656,0.263,0.2612,0.2607,0.2591,0.2576,0.2561,0.2553,0.2532,0.2526,0.2513,0.2492,0.2482,0.2456,0.2452,0.2424,0.2424,0.2429,0.2428,0.2414,0.2415,0.237,0.2363,0.24,0.2399,0.2399,0,0.2646,0.2631,0.2612,0.26,0.2591,0.2573,0.2561,0.2553,0.254,0.252,0.2508,0.2487,0.247,0.2437,0.2425,0.2405,0.2404,0.2389,0.2401,0.2402,0.2402,0.2402,0.24,0.2387,0.2386,0.2386,0.2386,0,0.2615,0.2611,0.2594,0.2575,0.2561,0.2546,0.2531,0.2521,0.2511,0.2497,0.2476,0.2463,0.2437,0.2416,0.2395,0.2385,0.2383,0.2383,0.2378,0.2379,0.2382,0.2379,0.2422,0.2383,0.2384,0.2384,0.2384,0.2384,0.2592,0.2578,0.2563,0.2543,0.2532,0.2518,0.2503,0.2493,0.2476,0.2454,0.245,0.2428,0.2411,0.2384,0.2373,0.2355,0.2358,0.2351,0.2349,0.2347,0.2346,0.2386,0.2351,0.2351,0.2351,0.2351,0.2351,0,0.2559,0.2549,0.2532,0.2511,0.2496,0.2497,0.248,0.2467,0.2448,0.2433,0.2416,0.2392,0.2372,0.2358,0.2338,0.2326,0.2324,0.232,0.232,0.2318,0.2345,0.2351,0.2322,0.2322,0.2322,0.2322,0.2322,0.2322,0.254,0.2516,0.2511,0.2481,0.247,0.2449,0.2439,0.2426,0.2414,0.2387,0.237,0.2362,0.2347,0.2326,0.2307,0.2303,0.2295,0.2291,0.2288,0.2313,0.2316,0.2319,0.2324,0.229,0.229,0.2262,0.2261,0.2261]}]]